Flag for Oman Weather past 2 weeks in Salalah, Oman

Now
73 °F

Mild.


Feels Like: 77 °F
Forecast: 60 / 83 °F
Wind: 2 mph from North

Location: Salalah Airport

Current Time: Jan 25, 2015 at 8:46:44 PM

Latest Report: Jan 25, 2015 at 7:50 PM


Visibility: N/A

Pressure: 30.12 "Hg

Humidity: 50%

Dew point: 54 °F

Location of SalalahLocation

Historic Weather in Salalah — Graph

°F

Salalah temperature yesterday

Maximum temperature yesterday: 77 °F (at 10:50 AM)
Minimum temperature yesterday: 64 °F (at 12:50 AM)
Average temperature yesterday: 71 °F

Past Weeks' High & Low Weather Summary

 TemperatureHumidityPressure
High86 °F (Jan 12, 12:50 PM)78% (Jan 18, 6:50 AM)30.24 "Hg (Jan 18, 6:50 AM)
Low61 °F (Jan 22, 6:50 AM)8% (Jan 21, 2:50 PM)29.89 "Hg (Jan 19, 3:50 PM)
Average73 °F40%30.07 "Hg
* Reported Jan 10 6:50 PM — Jan 25 6:50 PM, Salalah, Weather by CustomWeather, © 2014

Note: Actual official high and low records may vary slightly from our data, if they occured in-between our weather recording intervals... More about our weather records

Advertising

Salalah weather history for previous 24 hours

 ConditionsComfort  
Time TempWeatherWind HumidityBarometerVisibility
6:50 PM
Jan 25
73 °FPassing clouds.3 mph53%30.12 "HgN/A
5:50 PM75 °FPassing clouds.8 mph47%30.09 "HgN/A
4:50 PM77 °FPassing clouds.10 mph42%30.09 "HgN/A
3:50 PM77 °FWarm.12 mph42%30.09 "HgN/A
2:50 PM77 °FPassing clouds.13 mph44%30.09 "HgN/A
1:50 PM77 °FPassing clouds.15 mph42%30.09 "HgN/A
12:50 PM79 °FPleasantly warm.10 mph37%30.09 "HgN/A
11:50 AM79 °FPleasantly warm.6 mph26%30.15 "HgN/A
10:50 AM77 °FPassing clouds.2 mph36%30.18 "HgN/A
9:50 AM75 °FMild.3 mph47%30.18 "HgN/A
8:50 AM72 °FMild.2 mph47%30.18 "HgN/A
7:50 AM66 °FPassing clouds.7 mph52%30.15 "HgN/A
6:50 AM63 °FPassing clouds.6 mph56%30.12 "HgN/A
5:50 AM63 °FClear.5 mph56%30.09 "Hg10 mi
4:50 AM66 °FClear.3 mph49%30.09 "Hg10 mi
3:50 AM64 °FMild.7 mph56%30.09 "HgN/A
2:50 AM63 °FClear.5 mph73%30.09 "Hg10 mi
1:50 AM68 °FMild.9 mph60%30.09 "HgN/A
12:50 AM68 °FClear.9 mph60%30.09 "Hg10 mi
11:50 PM
Jan 24
68 °FClear.8 mph60%30.09 "Hg10 mi
10:50 PM70 °FClear.8 mph57%30.12 "Hg10 mi
9:50 PM70 °FMild.5 mph57%30.12 "HgN/A
8:50 PM72 °FClear.2 mph57%30.12 "Hg10 mi
Weather by CustomWeather, © 2014

See weather overviewHow to use our weather pages